This is the latest recevied weather packets stored in our database for station/object KE8AFF-13. If no packets are shown the sender has not sent any weather packets the latest 10 day(s).
| Time | Temp. | Humidity | Pressure | Rain* | Wind** | Luminosity | Snow |
|---|---|---|---|---|---|---|---|
| 1778193540 | 14.44° C | 43% | 1012.6 hPa | 0 mm | - | 203 W/m² | - |
| 1778193231 | 14.44° C | 45% | 1012.4 hPa | 0 mm | - | 265 W/m² | - |
| 1778192928 | 14.44° C | 44% | 1012.6 hPa | 0 mm | - | 292 W/m² | - |
| 1778192624 | 13.89° C | 46% | 1012.6 hPa | 0 mm | - | 282 W/m² | - |
| 1778192321 | 13.89° C | 46% | 1012.8 hPa | 0 mm | - | 307 W/m² | - |
| 1778192017 | 13.33° C | 45% | 1012.8 hPa | 0 mm | - | 321 W/m² | - |
| 1778191713 | 13.33° C | 46% | 1012.5 hPa | 0 mm | - | 319 W/m² | - |
| 1778191411 | 13.33° C | 45% | 1012.7 hPa | 0 mm | - | 121 W/m² | - |
| 1778191108 | 13.33° C | 46% | 1012.7 hPa | 0 mm | - | 104 W/m² | - |
| 1778190805 | 13.33° C | 44% | 1012.6 hPa | 0 mm | - | 341 W/m² | - |
| 1778190502 | 13.89° C | 45% | 1012.5 hPa | 0 mm | - | 408 W/m² | - |
| 1778190200 | 14.44° C | 43% | 1012.4 hPa | 0 mm | - | 428 W/m² | - |
| 1778189894 | 13.89° C | 44% | 1012.5 hPa | 0 mm | - | 415 W/m² | - |
| 1778189592 | 13.89° C | 46% | 1012.5 hPa | 0 mm | - | 429 W/m² | - |
| 1778189288 | 13.89° C | 46% | 1012.3 hPa | 0 mm | - | 445 W/m² | - |
| 1778188985 | 13.33° C | 48% | 1012.4 hPa | 0 mm | - | 458 W/m² | - |
| 1778188681 | 12.78° C | 48% | 1012.5 hPa | 0 mm | - | 137 W/m² | - |
| 1778188378 | 12.78° C | 48% | 1012.5 hPa | 0 mm | - | 128 W/m² | - |
| 1778188075 | 12.78° C | 48% | 1012.4 hPa | 0 mm | - | 102 W/m² | - |
| 1778187772 | 12.78° C | 47% | 1012.5 hPa | 0 mm | - | 115 W/m² | - |
| 1778187468 | 13.33° C | 47% | 1012.6 hPa | 0 mm | - | 124 W/m² | - |
| 1778187165 | 12.78° C | 47% | 1012.6 hPa | 0 mm | - | 202 W/m² | - |
| 1778186861 | 13.33° C | 46% | 1012.3 hPa | 0 mm | - | 475 W/m² | - |
| 1778186559 | 13.89° C | 46% | 1012.5 hPa | 0 mm | - | 553 W/m² | - |
| 1778186256 | 13.33° C | 48% | 1012.5 hPa | 0 mm | - | 309 W/m² | - |
* Rain latest hour (hover to see other rain measurements)
** Current wind speed in m/s (hover to see current wind gust speed)